�������l�o���
Date,Time,MP-1(��Sv/h),MP-2(��Sv/h),MP-3(��Sv/h),MP-4(��Sv/h),MP-5(��Sv/h),MP-6(��Sv/h),MP-7(��Sv/h),MP-8(��Sv/h),����,����(m/s),���J
2017/03/16,00:00,0.994,1.624,1.108,1.935,1.326,0.537,0.990,0.922,�k�k��,6.4,��
2017/03/16,00:10,0.996,1.625,1.107,1.936,1.328,0.539,0.989,0.920,�k�k��,6.5,��
2017/03/16,00:20,0.994,1.625,1.111,1.934,1.326,0.539,0.990,0.923,�k�k��,6.4,��
2017/03/16,00:30,0.996,1.623,1.106,1.937,1.327,0.538,0.991,0.922,�k�k��,5.8,��
2017/03/16,00:40,0.996,1.625,1.108,1.935,1.327,0.538,0.992,0.923,�k�k��,5.8,��
2017/03/16,00:50,0.995,1.628,1.111,1.934,1.329,0.538,0.988,0.923,�k�k��,5.0,��
2017/03/16,01:00,0.997,1.625,1.109,1.934,1.325,0.540,0.991,0.923,�k��,5.9,��
2017/03/16,01:10,0.998,1.624,1.107,1.937,1.329,0.539,0.989,0.921,�k��,5.6,��
2017/03/16,01:20,0.995,1.628,1.109,1.937,1.327,0.539,0.989,0.922,�k��,5.8,��
2017/03/16,01:30,0.997,1.624,1.112,1.934,1.328,0.538,0.989,0.924,�k��,5.1,��
2017/03/16,01:40,0.996,1.622,1.113,1.935,1.325,0.539,0.990,0.923,�k��,4.8,��
2017/03/16,01:50,0.996,1.623,1.111,1.935,1.326,0.539,0.990,0.922,�k��,7.0,��
2017/03/16,02:00,0.996,1.625,1.110,1.937,1.328,0.538,0.989,0.922,�k��,6.5,��
2017/03/16,02:10,0.996,1.621,1.108,1.934,1.327,0.538,0.989,0.922,�k��,5.6,��
2017/03/16,02:20,0.994,1.624,1.111,1.935,1.327,0.539,0.991,0.922,�k��,6.1,��
2017/03/16,02:30,0.995,1.625,1.110,1.937,1.326,0.539,0.992,0.923,���k��,5.9,��
2017/03/16,02:40,0.993,1.625,1.110,1.936,1.328,0.538,0.991,0.922,�k��,7.1,��
2017/03/16,02:50,0.993,1.626,1.109,1.936,1.325,0.539,0.991,0.924,�k��,6.1,��
2017/03/16,03:00,0.995,1.624,1.109,1.937,1.329,0.538,0.993,0.924,���k��,6.9,��
2017/03/16,03:10,0.995,1.624,1.109,1.937,1.329,0.539,0.991,0.923,�k��,6.9,��
2017/03/16,03:20,0.995,1.625,1.109,1.936,1.328,0.540,0.993,0.924,�k��,4.7,��
2017/03/16,03:30,0.996,1.625,1.109,1.937,1.326,0.540,0.993,0.924,�k�k��,5.2,��
2017/03/16,03:40,0.996,1.625,1.107,1.938,1.328,0.540,0.994,0.923,�k�k��,6.0,��
2017/03/16,03:50,0.995,1.624,1.108,1.936,1.329,0.539,0.994,0.924,�k�k��,6.7,��
2017/03/16,04:00,0.996,1.624,1.111,1.937,1.326,0.538,0.993,0.924,�k�k��,4.5,��
2017/03/16,04:10,0.994,1.625,1.109,1.938,1.330,0.539,0.992,0.923,�k�k��,3.2,��
2017/03/16,04:20,0.995,1.624,1.108,1.937,1.329,0.539,0.992,0.924,�k�k��,3.6,��
2017/03/16,04:30,0.995,1.623,1.108,1.938,1.330,0.538,0.991,0.924,�k�k��,4.3,��
2017/03/16,04:40,0.994,1.626,1.108,1.937,1.330,0.537,0.992,0.923,�k�k��,5.2,��
2017/03/16,04:50,0.996,1.625,1.110,1.935,1.327,0.538,0.991,0.921,�k�k��,4.5,��
2017/03/16,05:00,0.992,1.627,1.108,1.935,1.330,0.539,0.990,0.924,�k�k��,3.4,��
2017/03/16,05:10,0.995,1.627,1.108,1.938,1.328,0.537,0.992,0.922,�k�k��,3.9,��
2017/03/16,05:20,0.993,1.624,1.107,1.935,1.326,0.537,0.992,0.923,�k�k��,3.8,��
2017/03/16,05:30,0.994,1.622,1.105,1.938,1.325,0.539,0.992,0.923,�k�k��,3.6,��
2017/03/16,05:40,0.996,1.622,1.109,1.938,1.326,0.538,0.991,0.924,�k��,2.9,��
2017/03/16,05:50,0.992,1.623,1.107,1.935,1.328,0.538,0.990,0.923,�k�k��,3.0,��
2017/03/16,06:00,0.995,1.623,1.107,1.938,1.327,0.537,0.991,0.922,�k�k��,3.4,��
2017/03/16,06:10,0.993,1.623,1.105,1.935,1.330,0.537,0.991,0.923,�k��,2.6,��
2017/03/16,06:20,0.995,1.622,1.106,1.937,1.327,0.537,0.989,0.923,���k��,1.7,��
2017/03/16,06:30,0.992,1.623,1.106,1.938,1.329,0.538,0.990,0.923,���k��,3.3,��
2017/03/16,06:40,0.994,1.626,1.108,1.939,1.327,0.537,0.991,0.923,���k��,4.3,��
2017/03/16,06:50,0.995,1.628,1.108,1.936,1.325,0.537,0.990,0.922,���k��,4.4,��
2017/03/16,07:00,0.992,1.625,1.109,1.939,1.325,0.538,0.991,0.923,�k��,4.4,��
2017/03/16,07:10,0.993,1.625,1.107,1.938,1.328,0.538,0.992,0.923,�k��,3.4,��
2017/03/16,07:20,0.993,1.624,1.106,1.942,1.326,0.538,0.992,0.923,�k��,3.7,��
2017/03/16,07:30,0.995,1.624,1.110,1.942,1.330,0.539,0.992,0.923,���k��,2.6,��
2017/03/16,07:40,0.997,1.630,1.106,1.941,1.328,0.538,0.990,0.924,�k��,2.9,��
2017/03/16,07:50,0.996,1.629,1.110,1.940,1.331,0.538,0.991,0.924,�k��,2.3,��
2017/03/16,08:00,0.996,1.628,1.108,1.941,1.331,0.539,0.994,0.924,�k�k��,1.4,��
2017/03/16,08:10,0.997,1.632,1.112,1.940,1.333,0.538,0.992,0.927,�k�k��,3.1,��
2017/03/16,08:20,0.997,1.630,1.111,1.939,1.333,0.539,0.994,0.924,�k�k��,4.4,��
2017/03/16,08:30,1.001,1.631,1.113,1.942,1.332,0.539,0.994,0.925,�k��,4.9,��
2017/03/16,08:40,1.001,1.635,1.112,1.944,1.336,0.540,0.994,0.925,�k�k��,6.0,��
2017/03/16,08:50,1.001,1.634,1.115,1.943,1.333,0.540,0.996,0.924,�k��,9.1,��
2017/03/16,09:00,1.003,1.634,1.115,1.941,1.339,0.540,0.993,0.928,�k��,9.5,��
2017/03/16,09:10,1.001,1.634,1.118,1.947,1.337,0.539,0.995,0.925,�k��,11.4,��
2017/03/16,09:20,1.005,1.631,1.117,1.945,1.337,0.542,0.993,0.925,�k��,12.5,��
2017/03/16,09:30,1.003,1.632,1.114,1.947,1.338,0.541,0.997,0.927,�k��,9.9,��
2017/03/16,09:40,1.003,1.636,1.118,1.948,1.340,0.541,0.993,0.926,�k��,8.3,��
2017/03/16,09:50,1.005,1.637,1.119,1.950,1.341,0.542,0.993,0.925,���k��,6.8,��
2017/03/16,10:00,1.004,1.637,1.118,1.951,1.341,0.541,0.994,0.927,���k��,9.0,��
2017/03/16,10:10,1.006,1.639,1.118,1.950,1.343,0.540,0.993,0.926,�k��,8.6,��
2017/03/16,10:20,1.006,1.640,1.118,1.953,1.342,0.542,0.995,0.926,�k��,7.8,��
2017/03/16,10:30,1.006,1.642,1.116,1.954,1.342,0.543,0.994,0.925,�k��,7.6,��
2017/03/16,10:40,1.007,1.642,1.120,1.955,1.343,0.542,0.993,0.926,�쐼,3.8,��
2017/03/16,10:50,1.010,1.642,1.120,1.953,1.346,0.542,0.995,0.926,��,4.9,��
2017/03/16,11:00,1.009,1.644,1.125,1.953,1.344,0.540,0.996,0.926,��,6.2,��
2017/03/16,11:10,1.009,1.643,1.120,1.954,1.349,0.540,0.994,0.925,��,6.8,��
2017/03/16,11:20,1.010,1.643,1.123,1.959,1.346,0.539,0.997,0.926,��,5.2,��
2017/03/16,11:30,1.011,1.645,1.124,1.955,1.346,0.542,0.995,0.924,��,3.7,��
2017/03/16,11:40,1.011,1.644,1.126,1.956,1.346,0.541,0.994,0.924,���쐼,2.0,��
2017/03/16,11:50,1.012,1.643,1.123,1.957,1.347,0.543,0.995,0.925,���쐼,2.9,��
2017/03/16,12:00,1.013,1.647,1.126,1.954,1.348,0.543,0.996,0.925,��,2.5,��
2017/03/16,12:10,1.015,1.647,1.125,1.956,1.349,0.543,0.995,0.928,���k��,1.4,��
2017/03/16,12:20,1.014,1.646,1.128,1.959,1.351,0.542,0.996,0.927,���k��,4.5,��
2017/03/16,12:30,1.015,1.647,1.127,1.958,1.349,0.544,0.997,0.926,���k��,4.4,��
2017/03/16,12:40,1.014,1.645,1.129,1.958,1.352,0.543,0.998,0.927,���k��,8.9,��
2017/03/16,12:50,1.015,1.647,1.129,1.961,1.352,0.542,0.995,0.926,��,8.3,��
2017/03/16,13:00,1.015,1.650,1.130,1.961,1.354,0.545,0.997,0.929,���k��,7.9,��
2017/03/16,13:10,1.015,1.649,1.131,1.959,1.351,0.545,0.995,0.929,���k��,7.6,��
2017/03/16,13:20,1.015,1.653,1.130,1.962,1.353,0.544,0.998,0.926,���k��,6.1,��
2017/03/16,13:30,1.012,1.651,1.128,1.964,1.354,0.544,0.997,0.927,���k��,7.8,��
2017/03/16,13:40,1.014,1.654,1.127,1.964,1.354,0.544,0.998,0.928,���k��,6.6,��
2017/03/16,13:50,1.015,1.653,1.129,1.965,1.353,0.544,0.996,0.927,��,9.1,��
2017/03/16,14:00,1.014,1.650,1.128,1.963,1.355,0.544,0.997,0.927,��,8.2,��
2017/03/16,14:10,1.015,1.655,1.128,1.966,1.358,0.544,0.997,0.928,��,8.3,��
2017/03/16,14:20,1.013,1.653,1.130,1.964,1.356,0.545,0.998,0.926,��,6.0,��
2017/03/16,14:30,1.018,1.654,1.131,1.965,1.356,0.546,0.996,0.927,���k��,7.3,��
2017/03/16,14:40,1.015,1.658,1.131,1.967,1.355,0.544,1.000,0.926,��,8.1,��
2017/03/16,14:50,1.017,1.659,1.127,1.967,1.359,0.546,0.998,0.928,���k��,7.1,��
2017/03/16,15:00,1.015,1.659,1.132,1.968,1.358,0.546,0.998,0.927,���k��,6.7,��
2017/03/16,15:10,1.016,1.658,1.131,1.969,1.358,0.544,0.997,0.926,���k��,6.0,��
2017/03/16,15:20,1.016,1.657,1.133,1.967,1.360,0.547,0.999,0.927,��,7.3,��
2017/03/16,15:30,1.016,1.660,1.131,1.966,1.360,0.545,0.996,0.927,��,7.9,��
2017/03/16,15:40,1.017,1.657,1.132,1.967,1.360,0.546,0.998,0.928,���k��,8.4,��
2017/03/16,15:50,1.016,1.657,1.130,1.970,1.358,0.545,0.998,0.926,�k��,5.7,��
2017/03/16,16:00,1.016,1.658,1.130,1.970,1.356,0.545,0.995,0.926,�k��,5.0,��
2017/03/16,16:10,1.017,1.662,1.131,1.969,1.357,0.545,0.997,0.931,�k��,4.9,��
2017/03/16,16:20,1.018,1.662,1.131,1.968,1.362,0.545,0.997,0.929,���k��,4.6,��
2017/03/16,16:30,1.021,1.662,1.132,1.968,1.360,0.547,0.997,0.931,���k��,4.7,��
2017/03/16,16:40,1.018,1.662,1.131,1.972,1.357,0.546,0.997,0.931,�k��,5.9,��
2017/03/16,16:50,1.017,1.663,1.131,1.971,1.358,0.547,0.998,0.930,�k��,5.1,��
2017/03/16,17:00,1.018,1.664,1.130,1.967,1.359,0.546,0.999,0.929,�k��,6.9,��
2017/03/16,17:10,1.016,1.662,1.134,1.969,1.359,0.544,0.998,0.930,�k��,7.4,��
2017/03/16,17:20,1.017,1.664,1.132,1.962,1.362,0.545,0.998,0.930,�k��,7.6,��
2017/03/16,17:30,1.018,1.662,1.132,1.967,1.359,0.545,0.998,0.930,�k��,6.4,��
2017/03/16,17:40,1.015,1.663,1.132,1.963,1.363,0.545,0.998,0.930,�k��,7.3,��
2017/03/16,17:50,1.017,1.662,1.129,1.966,1.362,0.544,0.999,0.928,�k��,6.2,��
2017/03/16,18:00,1.017,1.659,1.130,1.965,1.360,0.544,0.999,0.930,�k��,6.4,��
2017/03/16,18:10,1.016,1.660,1.131,1.965,1.359,0.543,0.998,0.932,�k��,5.3,��
2017/03/16,18:20,1.015,1.663,1.130,1.967,1.362,0.544,1.000,0.931,�k�k��,5.1,��
2017/03/16,18:30,1.018,1.662,1.128,1.970,1.363,0.544,0.999,0.930,�k�k��,5.4,��
2017/03/16,18:40,1.015,1.658,1.131,1.970,1.360,0.545,1.000,0.929,�k�k��,5.4,��
2017/03/16,18:50,1.015,1.661,1.130,1.967,1.364,0.545,0.999,0.929,�k�k��,5.4,��
2017/03/16,19:00,1.015,1.662,1.130,1.964,1.362,0.544,0.998,0.928,�k�k��,5.2,��
2017/03/16,19:10,1.016,1.660,1.129,1.962,1.363,0.542,0.999,0.928,�k�k��,4.2,��
2017/03/16,19:20,1.014,1.657,1.130,1.964,1.361,0.543,0.997,0.928,�k��,3.2,��
2017/03/16,19:30,1.014,1.658,1.127,1.964,1.361,0.545,0.998,0.929,�k��,4.0,��
2017/03/16,19:40,1.014,1.659,1.128,1.967,1.358,0.543,0.998,0.928,�k��,4.0,��
2017/03/16,19:50,1.015,1.661,1.128,1.965,1.361,0.544,0.998,0.928,�k�k��,2.6,��
2017/03/16,20:00,1.013,1.660,1.132,1.964,1.360,0.542,1.000,0.928,�k�k��,3.5,��
2017/03/16,20:10,1.011,1.661,1.137,1.965,1.360,0.543,0.997,0.930,�k�k��,3.5,��
2017/03/16,20:20,1.010,1.660,1.127,1.963,1.361,0.544,0.997,0.929,�k�k��,3.3,��
2017/03/16,20:30,1.008,1.661,1.127,1.963,1.358,0.543,0.998,0.929,�k,3.3,��
2017/03/16,20:40,1.011,1.658,1.127,1.970,1.362,0.544,0.998,0.929,�k,3.9,��
2017/03/16,20:50,1.011,1.659,1.129,1.964,1.360,0.544,0.999,0.929,�k,5.0,��
2017/03/16,21:00,1.010,1.660,1.127,1.965,1.361,0.543,0.997,0.927,�k,5.2,��
2017/03/16,21:10,1.008,1.658,1.127,1.966,1.359,0.543,0.997,0.929,�k,4.8,��
2017/03/16,21:20,1.010,1.658,1.127,1.964,1.360,0.543,0.997,0.928,�k�k��,5.3,��
2017/03/16,21:30,1.010,1.660,1.127,1.965,1.360,0.542,0.997,0.927,�k��,4.2,��
2017/03/16,21:40,1.010,1.659,1.128,1.963,1.360,0.542,0.998,0.928,�k�k��,5.1,��
2017/03/16,21:50,1.011,1.659,1.128,1.965,1.358,0.543,0.997,0.928,�k�k��,6.4,��
2017/03/16,22:00,1.011,1.658,1.125,1.968,1.359,0.543,0.997,0.928,�k�k��,6.9,��
2017/03/16,22:10,1.011,1.659,1.125,1.963,1.359,0.543,0.999,0.929,�k�k��,5.1,��
2017/03/16,22:20,1.010,1.656,1.128,1.965,1.359,0.542,0.995,0.928,�k�k��,4.1,��
2017/03/16,22:30,1.012,1.658,1.128,1.967,1.361,0.544,0.998,0.927,�k�k��,4.9,��
2017/03/16,22:40,1.011,1.659,1.127,1.964,1.357,0.542,0.996,0.927,�k�k��,4.9,��
2017/03/16,22:50,1.010,1.660,1.127,1.965,1.359,0.543,0.997,0.928,�k��,5.2,��
2017/03/16,23:00,1.008,1.659,1.126,1.962,1.359,0.543,0.997,0.927,�k��,4.0,��
2017/03/16,23:10,1.011,1.659,1.124,1.961,1.359,0.543,0.997,0.927,�k��,2.9,��
2017/03/16,23:20,1.011,1.659,1.126,1.962,1.356,0.542,0.996,0.927,�k�k��,2.3,��
2017/03/16,23:30,1.009,1.659,1.125,1.964,1.358,0.544,0.997,0.928,�k��,2.3,��
2017/03/16,23:40,1.010,1.661,1.126,1.964,1.360,0.543,0.995,0.928,�k��,3.0,��
2017/03/16,23:50,1.010,1.656,1.124,1.963,1.359,0.542,0.996,0.927,�k��,3.4,��
